User: anonymous   Login
Location: Unspecified
(0.0000°N, 0.0000°E)
Time: 09:33:36
(UTC+00:00)
Language:

Nimbus 7 Rocket - Orbit

View from above orbital plane
View from above orbital plane
View from above satellite
View from above satellite

Ground track
Ground track

The orbit data is extracted from the following two-line orbital elements,

1 11081U 78098B   17295.77568046 -.00000012 +00000-0 +29832-4 0  9992
2 11081 099.5282 170.5113 0028322 292.1439 067.6711 13.85639905810212
Epoch (UTC): 22 October 2017 18:36:58
Eccentricity: 0.0028322
inclination: 99.5282°
perigee height: 923 km
apogee height: 964 km
right ascension of ascending node: 170.5113°
argument of perigee: 292.1439°
revolutions per day: 13.85639905
mean anomaly at epoch: 67.6711°
orbit number at epoch: 81021

The dashed part of the orbit path shows where the satellite is in the earth's shadow,  

DLR